Stetsonville, WI

8:39 AM CDT on September 25, 2016 (GMT -0500)
Taylor County

Weather History for KMDZ - September, 2013

Change the Weather History Date:

Friday, September 20, 2013

  Actual Average Record
Temperature  
Mean Temperature 56 °F -  
Max Temperature 64 °F 66 °F 89 °F (1985)
Min Temperature 47 °F 44 °F 25 °F (1973)
Degree Days  
Heating Degree Days 10    
Growing Degree Days 6 (Base 50)    
Moisture  
Dew Point 55 °F    
Average Humidity 89    
Maximum Humidity 99    
Minimum Humidity 68    
Precipitation  
Precipitation 0.01 in - - ()
Sea Level Pressure  
Sea Level Pressure 29.78 in    
Wind  
Wind Speed 7 mph (West)    
Max Wind Speed 14 mph    
Max Gust Speed 23 mph    
Visibility 9 miles    
Events Rain    
Averages and records for this station are not official NWS values.
T = Trace of Precipitation, MM = Missing Value Source: NWS Daily Summary

Daily Weather History Graph

Daily Weather History Graph

Search for Another Location

Airport or City:

Trip Planner

Search our weather history database for the weather conditions in past years. The results will help you decide how hot, cold, wet, or windy it might be!

Date:

Astronomy

Sep. 20, 2013 Rise Set
Actual Time 6:46 AM CDT 7:02 PM CDT
Civil Twilight 6:16 AM CDT 7:31 PM CDT
Nautical Twilight 5:42 AM CDT 8:05 PM CDT
Astronomical Twilight 5:06 AM CDT 8:41 PM CDT
Moon 7:29 PM CDT (9/20) 8:06 AM CDT (9/20)
Length of Visible Light 13h 14m
Length of Day
12h 15m
Full, 98% of the Moon is Illuminated
Sep 20
Full
Sep 26
Last Quarter
Oct 4
New
Oct 11
First Quarter
Oct 18
Full

Hourly Weather History & Observations

Time (CDT) Temp. Dew Point Humidity Pressure Visibility Wind Dir Wind Speed Gust Speed Precip Events Conditions
12:15 AM 63.7 °F 63.0 °F 97% 29.74 in 5.0 mi WSW 3.5 mph - N/A Rain Rain
12:35 AM 63.5 °F 62.8 °F 97% 29.72 in 4.0 mi Calm Calm - 0.01 in Rain Light Rain
12:55 AM 63.7 °F 63.5 °F 99% 29.74 in 4.0 mi SW 3.5 mph - 0.01 in   Light Drizzle
1:15 AM 63.9 °F 63.5 °F 99% 29.75 in 4.0 mi WSW 5.8 mph - N/A   Overcast
1:35 AM 64.0 °F 63.3 °F 97% 29.75 in 5.0 mi WSW 5.8 mph - N/A   Overcast
1:55 AM 64.0 °F 63.0 °F 96% 29.74 in 5.0 mi West 6.9 mph - N/A   Overcast
2:15 AM 63.9 °F 63.0 °F 97% 29.73 in 5.0 mi West 6.9 mph - N/A   Overcast
2:35 AM 63.7 °F 63.0 °F 97% 29.75 in 5.0 mi West 6.9 mph - N/A   Overcast
2:55 AM 63.7 °F 63.0 °F 97% 29.74 in 5.0 mi West 5.8 mph - N/A   Overcast
3:15 AM 63.7 °F 63.0 °F 97% 29.74 in 5.0 mi West 4.6 mph - N/A   Overcast
3:35 AM 63.5 °F 62.8 °F 97% 29.75 in 5.0 mi West 6.9 mph - N/A Rain Rain
3:55 AM 63.5 °F 62.6 °F 97% 29.74 in 7.0 mi West 4.6 mph - N/A   Drizzle
4:15 AM 63.1 °F 62.1 °F 96% 29.74 in 7.0 mi West 5.8 mph - N/A   Overcast
4:35 AM 63.0 °F 61.9 °F 96% 29.74 in 7.0 mi West 6.9 mph - N/A   Overcast
4:55 AM 63.0 °F 61.7 °F 96% 29.73 in 10.0 mi West 6.9 mph - N/A   Overcast
5:15 AM 62.6 °F 61.3 °F 96% 29.73 in 10.0 mi West 6.9 mph - N/A   Overcast
5:35 AM 62.2 °F 61.2 °F 96% 29.74 in 7.0 mi West 12.7 mph 17.3 mph N/A   Overcast
5:55 AM 61.7 °F 60.3 °F 95% 29.74 in 10.0 mi West 10.4 mph - N/A   Overcast
6:15 AM 61.0 °F 59.5 °F 95% 29.74 in 10.0 mi WNW 10.4 mph 16.1 mph N/A   Overcast
6:35 AM 60.8 °F 59.4 °F 95% 29.74 in 10.0 mi WNW 5.8 mph - N/A Rain Light Rain
6:55 AM 60.4 °F 59.0 °F 95% 29.75 in 10.0 mi WNW 6.9 mph - N/A   Overcast
7:15 AM 59.9 °F 58.5 °F 95% 29.75 in 10.0 mi WNW 4.6 mph - N/A   Overcast
7:35 AM 59.9 °F 58.6 °F 96% 29.75 in 7.0 mi West 4.6 mph - N/A   Overcast
7:55 AM 60.1 °F 58.6 °F 95% 29.77 in 10.0 mi West 9.2 mph - N/A   Overcast
8:15 AM 60.3 °F 58.5 °F 94% 29.76 in 10.0 mi West 9.2 mph - N/A   Overcast
8:35 AM 59.5 °F 57.7 °F 94% 29.77 in 10.0 mi West 8.1 mph - N/A   Overcast
8:55 AM 59.2 °F 57.4 °F 94% 29.77 in 10.0 mi West 9.2 mph - N/A   Overcast
9:15 AM 59.0 °F 57.2 °F 94% 29.77 in 10.0 mi West 8.1 mph - N/A   Overcast
9:35 AM 59.0 °F 56.8 °F 93% 29.78 in 10.0 mi West 9.2 mph - N/A   Overcast
9:55 AM 59.4 °F 56.7 °F 91% 29.79 in 10.0 mi West 9.2 mph 18.4 mph N/A   Overcast
10:15 AM 59.0 °F 56.3 °F 91% 29.79 in 10.0 mi West 8.1 mph - N/A   Overcast
10:35 AM 58.3 °F 56.3 °F 93% 29.79 in 10.0 mi WSW 8.1 mph - N/A   Overcast
10:55 AM 57.2 °F 55.6 °F 94% 29.80 in 7.0 mi West 13.8 mph 17.3 mph N/A   Overcast
11:15 AM 56.8 °F 55.2 °F 94% 29.80 in 7.0 mi West 10.4 mph 17.3 mph N/A   Overcast
11:35 AM 57.6 °F 54.9 °F 91% 29.79 in 10.0 mi West 6.9 mph - N/A   Overcast
11:55 AM 58.6 °F 55.6 °F 90% 29.79 in 10.0 mi West 8.1 mph - N/A   Overcast
12:15 PM 59.5 °F 55.2 °F 86% 29.78 in 10.0 mi West 11.5 mph - N/A   Overcast
12:35 PM 59.0 °F 56.1 °F 90% 29.78 in 10.0 mi West 8.1 mph - N/A   Overcast
12:55 PM 61.2 °F 55.6 °F 82% 29.78 in 10.0 mi West 12.7 mph 19.6 mph N/A   Overcast
1:15 PM 61.0 °F 55.0 °F 81% 29.78 in 10.0 mi West 11.5 mph 19.6 mph N/A   Overcast
1:35 PM 60.8 °F 54.3 °F 79% 29.78 in 10.0 mi West 11.5 mph 23.0 mph N/A   Overcast
1:55 PM 62.6 °F 54.3 °F 74% 29.77 in 10.0 mi WSW 12.7 mph 18.4 mph N/A   Overcast
2:15 PM 62.1 °F 53.4 °F 73% 29.77 in 10.0 mi West 11.5 mph 18.4 mph N/A   Overcast
2:35 PM 61.9 °F 53.8 °F 75% 29.77 in 10.0 mi West 10.4 mph 18.4 mph N/A   Overcast
2:55 PM 62.1 °F 53.4 °F 73% 29.76 in 10.0 mi West 8.1 mph - N/A   Overcast
3:15 PM 64.9 °F 54.3 °F 68% 29.76 in 10.0 mi West 13.8 mph 20.7 mph N/A   Overcast
3:35 PM 59.7 °F 54.5 °F 83% 29.77 in 10.0 mi NNW 11.5 mph - N/A   Overcast
3:55 PM 60.1 °F 53.2 °F 78% 29.77 in 10.0 mi WNW 11.5 mph 16.1 mph N/A   Overcast
4:15 PM 59.5 °F 54.5 °F 83% 29.78 in 10.0 mi NW 11.5 mph - N/A   Overcast
4:35 PM 59.2 °F 53.8 °F 82% 29.78 in 7.0 mi West 11.5 mph 17.3 mph N/A Rain Rain
4:55 PM 57.9 °F 53.6 °F 86% 29.78 in 10.0 mi WNW 10.4 mph 17.3 mph N/A   Overcast
5:15 PM 56.8 °F 52.3 °F 85% 29.78 in 10.0 mi NW 8.1 mph - N/A   Overcast
5:35 PM 59.0 °F 52.3 °F 79% 29.78 in 10.0 mi NW 13.8 mph 18.4 mph N/A   Overcast
5:55 PM 57.6 °F 51.3 °F 79% 29.79 in 10.0 mi NW 8.1 mph - N/A   Overcast
6:15 PM 58.5 °F 52.2 °F 80% 29.80 in 10.0 mi West 6.9 mph - N/A   Overcast
6:35 PM 56.8 °F 50.5 °F 79% 29.81 in 10.0 mi WNW 11.5 mph 18.4 mph N/A   Scattered Clouds
6:55 PM 56.3 °F 48.9 °F 76% 29.81 in 10.0 mi NW 8.1 mph - N/A   Mostly Cloudy
7:15 PM 55.8 °F 48.9 °F 78% 29.81 in 10.0 mi NW 10.4 mph - N/A   Overcast
7:35 PM 55.4 °F 49.1 °F 79% 29.82 in 10.0 mi NW 4.6 mph - N/A   Overcast
7:55 PM 54.5 °F 50.0 °F 85% 29.83 in 10.0 mi NW 4.6 mph - N/A   Overcast
8:15 PM 54.3 °F 48.7 °F 81% 29.83 in 10.0 mi NW 3.5 mph - N/A   Overcast
8:35 PM 52.0 °F 48.2 °F 87% 29.83 in 10.0 mi WNW 3.5 mph - N/A   Mostly Cloudy
8:55 PM 51.8 °F 48.2 °F 88% 29.84 in 10.0 mi WNW 4.6 mph - N/A   Mostly Cloudy
9:15 PM 51.1 °F 47.3 °F 87% 29.84 in 10.0 mi WNW 4.6 mph - N/A   Scattered Clouds
9:35 PM 50.0 °F 46.8 °F 89% 29.84 in 10.0 mi WNW 4.6 mph - N/A   Scattered Clouds
9:55 PM 49.3 °F 46.4 °F 90% 29.84 in 10.0 mi WNW 4.6 mph - N/A   Scattered Clouds
10:15 PM 49.5 °F 46.4 °F 89% 29.85 in 10.0 mi WNW 4.6 mph - N/A   Scattered Clouds
10:35 PM 48.4 °F 45.9 °F 91% 29.85 in 10.0 mi WNW 4.6 mph - N/A   Scattered Clouds
10:55 PM 47.8 °F 45.5 °F 92% 29.85 in 10.0 mi West 5.8 mph - N/A   Scattered Clouds
11:15 PM 47.5 °F 44.8 °F 90% 29.86 in 10.0 mi WNW 4.6 mph - N/A   Scattered Clouds
11:35 PM 47.5 °F 44.4 °F 89% 29.85 in 10.0 mi WNW 5.8 mph - N/A   Clear
11:55 PM 47.5 °F 44.2 °F 89% 29.86 in 10.0 mi NW 5.8 mph - N/A   Clear